Elkins, WV

5:40 AM EST on December 13, 2019 (GMT -0500)
Elkins-Randolph County

Weather History for KEKN - November, 2019

Change the Weather History Date:

Thursday, November 14, 2019

  Actual Average Record
Temperature  
Mean Temperature 30 °F 42 °F  
Max Temperature 47 °F 54 °F 79 °F (1993)
Min Temperature 13 °F 31 °F 5 °F (1986)
Degree Days  
Heating Degree Days 35 23  
Month to date heating degree days 375 288  
Since 1 July heating degree days 663 879  
Cooling Degree Days 0 0  
Month to date cooling degree days 0 0  
Year to date cooling degree days 844 475  
Moisture  
Dew Point 17 °F    
Average Humidity 68    
Maximum Humidity 88    
Minimum Humidity 30    
Precipitation  
Precipitation 0.00 in 0.11 in 1.25 in (1972)
Month to date precipitation 0.59 1.51  
Year to date precipitation 44.11 40.80  
Snow  
Snow 0.00 in 0.20 in 6.00 in (1995)
Month to date snowfall 3.1 1.5  
Since 1 September snowfall 3.1 1.9  
Snow Depth 0.00 in    
Sea Level Pressure  
Sea Level Pressure 30.34 in    
Wind  
Wind Speed 1 mph ()    
Max Wind Speed 14 mph    
Max Gust Speed 20 mph    
T = Trace of Precipitation, MM = Missing Value Source: Averaged Metar Reports

Daily Weather History Graph

Daily Weather History Graph

Search for Another Location

Airport or City:

Astronomy

Nov. 14, 2019 Rise Set
Actual Time 7:00 AM EST 5:06 PM EST
Civil Twilight 6:32 AM EST 5:34 PM EST
Nautical Twilight 6:00 AM EST 6:07 PM EST
Astronomical Twilight 5:28 AM EST 6:38 PM EST
Moon 6:51 PM EST (11/14) 8:53 AM EST (11/14)
Length of Visible Light 11h 02m
Length of Day
10h 05m
Waning Gibbous, 95% of the Moon is Illuminated
Nov 14
Waning Gibbous
Nov 19
Last Quarter
Nov 26
New
Dec 4
First Quarter
Dec 12
Full

Hourly Weather History & Observations

Time (EST) Temp. Windchill Dew Point Humidity Pressure Visibility Wind Dir Wind Speed Gust Speed Precip Events Conditions
12:51 AM 18.0 °F - 12.9 °F 81% 30.31 in - Calm Calm - N/A   Clear
1:51 AM 16.0 °F - 12.0 °F 84% 30.30 in - Calm Calm - N/A   Clear
2:51 AM 16.0 °F - 10.9 °F 81% 30.32 in - Calm Calm - N/A   Clear
4:51 AM 14.0 °F - 9.0 °F 80% 30.34 in - Calm Calm - N/A   Clear
5:51 AM 14.0 °F - 9.0 °F 80% 30.35 in - Calm Calm - N/A   Clear
6:51 AM 14.0 °F - 9.0 °F 80% 30.38 in - Calm Calm - N/A   Clear
7:51 AM 17.1 °F - 12.0 °F 81% 30.39 in - Calm Calm - N/A   Clear
8:51 AM 21.9 °F - 16.0 °F 78% 30.39 in - Calm Calm - N/A   Clear
9:51 AM 28.9 °F - 21.9 °F 75% 30.38 in - Calm Calm - N/A   Clear
10:51 AM 43.0 °F 37.2 °F 19.9 °F 40% 30.35 in - WSW 10.4 mph - N/A   Clear
11:51 AM 43.0 °F 37.2 °F 19.0 °F 38% 30.31 in - West 10.4 mph - N/A   Partly Cloudy
12:51 PM 44.1 °F 38.1 °F 18.0 °F 35% 30.29 in - WNW 11.5 mph - N/A   Clear
1:51 PM 46.9 °F - 17.1 °F 30% 30.27 in - West 6.9 mph - N/A   Clear
3:51 PM 44.1 °F 41.5 °F 19.0 °F 37% 30.29 in - North 4.6 mph - N/A   Mostly Cloudy
5:51 PM 33.1 °F - 21.9 °F 64% 30.32 in - Calm Calm - N/A   Clear
6:51 PM 28.9 °F - 21.0 °F 72% 30.35 in - Calm Calm - N/A   Clear
7:51 PM 27.0 °F - 19.9 °F 75% 30.35 in - Calm Calm - N/A   Clear
8:51 PM 26.1 °F - 19.9 °F 78% 30.37 in - Calm Calm - N/A   Clear
9:51 PM 25.0 °F - 19.9 °F 81% 30.37 in - Calm Calm - N/A   Clear
10:51 PM 24.1 °F - 19.9 °F 84% 30.34 in - Calm Calm - N/A   Clear
11:51 PM 24.1 °F - 19.0 °F 81% 30.35 in - Calm Calm - N/A   Clear